Location: Heisede
(52.2582°N, 9.8523°E)
Time: 17:41:35
(UTC+00:00)

Cosmos 1140 Rocket - Visible Passes

Search period start: 11 April 2026 00:00
Search period end: 21 April 2026 00:00
Orbit: 739 x 762 km, 74.1° (Epoch: 11 April)

Date Brightness Start Highest point End Pass type
(mag) Time Alt. Az. Time Alt. Az. Time Alt. Az.
11 Apr 5.8 00:29:32 10° WNW 00:30:09 11° WNW 00:30:09 11° WNW visible
11 Apr 5.6 20:22:54 10° N 20:26:04 16° NE 20:28:51 11° ENE visible
11 Apr 3.6 22:03:43 10° NNW 22:08:44 62° NE 22:08:44 62° NE visible
11 Apr 5.3 23:46:05 10° NW 23:48:38 21° WNW 23:48:38 21° WNW visible
12 Apr 5.8 19:41:28 10° N 19:43:08 11° NNE 19:44:48 10° NE visible
12 Apr 4.3 21:21:33 10° NNW 21:26:24 39° NE 21:27:13 36° ENE visible
12 Apr 4.5 23:03:19 10° NW 23:07:07 36° WNW 23:07:07 36° WNW visible
13 Apr 5.0 20:39:30 10° N 20:43:47 25° NE 20:45:43 20° E visible
13 Apr 3.6 22:20:50 10° NNW 22:25:37 66° W 22:25:37 66° W visible
14 Apr 5.9 00:05:05 10° WNW 00:05:31 11° WNW 00:05:31 11° WNW visible
14 Apr 5.4 19:57:35 10° N 20:01:02 18° NE 20:04:15 11° E visible
14 Apr 3.4 21:38:31 10° NNW 21:43:42 72° ENE 21:44:08 67° ESE visible
14 Apr 5.3 23:21:07 10° NW 23:24:02 20° W 23:24:02 20° W visible
15 Apr 5.7 19:15:58 10° N 19:18:08 12° NNE 19:20:18 10° ENE visible
15 Apr 4.1 20:56:19 10° NNW 21:01:16 44° NE 21:02:41 35° E visible
15 Apr 4.5 22:38:14 10° NW 22:42:34 34° W 22:42:34 34° W visible
16 Apr 4.7 20:14:14 10° N 20:18:42 28° NE 20:21:14 19° E visible
16 Apr 3.6 21:55:41 10° NNW 22:00:46 59° WSW 22:01:08 57° SW visible
17 Apr 5.3 19:32:17 10° N 19:35:59 19° NE 19:39:39 10° E visible
17 Apr 3.4 21:13:19 10° NNW 21:18:31 82° ENE 21:19:42 54° SE visible
17 Apr 5.4 22:56:13 10° NW 22:59:31 17° W 22:59:36 17° W visible
18 Apr 3.9 20:31:06 10° NNW 20:36:08 50° ENE 20:38:18 30° ESE visible
18 Apr 4.7 22:13:10 10° NW 22:17:35 30° W 22:18:12 29° WSW visible
19 Apr 4.5 19:48:59 10° NNW 19:53:36 32° NE 19:56:55 16° ESE visible
19 Apr 3.9 21:30:33 10° NNW 21:35:32 51° WSW 21:36:50 40° SSW visible
20 Apr 5.1 19:07:00 10° N 19:10:55 21° NE 19:14:49 10° E visible
20 Apr 3.4 20:48:08 10° NNW 20:53:19 86° WSW 20:55:28 36° SSE visible
20 Apr 5.6 22:31:24 10° WNW 22:34:11 15° W 22:35:23 14° WSW visible
